Nederland, TX

8:36 PM CST on February 24, 2017 (GMT -0600)
Southeast Texas Regional

Weather History for KBPT - May, 2014

Change the Weather History Date:

Sunday, May 4, 2014

  Actual Average Record
Temperature  
Mean Temperature 72 °F 73 °F  
Max Temperature 86 °F 82 °F 92 °F (1943)
Min Temperature 57 °F 64 °F 42 °F (2013)
Degree Days  
Heating Degree Days 0 0  
Month to date heating degree days 0 0  
Since 1 July heating degree days 1710 1400  
Cooling Degree Days 7 8  
Month to date cooling degree days 12 32  
Year to date cooling degree days 213 259  
Growing Degree Days 22 (Base 50)    
Moisture  
Dew Point 56 °F    
Average Humidity 66    
Maximum Humidity 100    
Minimum Humidity 32    
Precipitation  
Precipitation 0.00 in 0.16 in 2.70 in (1904)
Month to date precipitation 0.00 0.63  
Year to date precipitation 11.03 16.21  
Snow  
Snow 0.00 in 0.00 in 0.00 in ()
Month to date snowfall 0.0 0.0  
Since 1 July snowfall 0.3 T  
Snow Depth 0.00 in    
Sea Level Pressure  
Sea Level Pressure 30.10 in    
Wind  
Wind Speed 8 mph (SSW)    
Max Wind Speed 17 mph    
Max Gust Speed 23 mph    
Visibility 9 miles    
Events      
T = Trace of Precipitation, MM = Missing Value Source: NWS Daily Summary

Daily Weather History Graph

Daily Weather History Graph

Search for Another Location

Airport or City:

Trip Planner

Search our weather history database for the weather conditions in past years. The results will help you decide how hot, cold, wet, or windy it might be!

Date:

Astronomy

May. 04, 2014 Rise Set
Actual Time 6:30 AM CDT 7:55 PM CDT
Civil Twilight 6:05 AM CDT 8:20 PM CDT
Nautical Twilight 5:34 AM CDT 8:51 PM CDT
Astronomical Twilight 5:03 AM CDT 9:23 PM CDT
Moon 10:56 AM CDT (5/4) No Moon Set
Length of Visible Light 14h 15m
Length of Day
13h 24m
Waxing Crescent, 28% of the Moon is Illuminated
May 4
Waxing Crescent
May 6
First Quarter
May 14
Full
May 21
Last Quarter
May 28
New

Hourly Weather History & Observations

Time (CDT) Temp. Heat Index Dew Point Humidity Pressure Visibility Wind Dir Wind Speed Gust Speed Precip Events Conditions
12:53 AM 63.0 °F - 59.0 °F 87% 30.10 in 10.0 mi SSW 5.8 mph - N/A   Clear
1:53 AM 63.0 °F - 59.0 °F 87% 30.10 in 10.0 mi SSW 4.6 mph - N/A   Clear
2:53 AM 60.1 °F - 57.0 °F 90% 30.09 in 10.0 mi South 3.5 mph - N/A   Clear
3:53 AM 61.0 °F - 59.0 °F 93% 30.09 in 10.0 mi SSW 3.5 mph - N/A   Clear
4:53 AM 61.0 °F - 59.0 °F 93% 30.09 in 9.0 mi SW 3.5 mph - N/A   Clear
5:53 AM 59.0 °F - 57.0 °F 93% 30.11 in 6.0 mi SSW 4.6 mph - N/A   Clear
6:47 AM 57.2 °F - 57.2 °F 100% 30.12 in 1.5 mi Calm Calm - N/A   Clear
6:53 AM 57.9 °F - 57.0 °F 97% 30.12 in 8.0 mi Calm Calm - N/A   Clear
7:53 AM 63.0 °F - 61.0 °F 93% 30.13 in 8.0 mi SW 3.5 mph - N/A   Clear
8:53 AM 71.1 °F - 62.1 °F 73% 30.14 in 10.0 mi SW 10.4 mph - N/A   Clear
9:53 AM 75.9 °F - 55.9 °F 50% 30.15 in 10.0 mi SW 12.7 mph - N/A   Clear
10:53 AM 80.1 °F 80.1 °F 55.0 °F 42% 30.15 in 10.0 mi WSW 9.2 mph - N/A   Clear
11:53 AM 82.0 °F - 51.1 °F 34% 30.14 in 10.0 mi SW 10.4 mph 19.6 mph N/A   Clear
12:53 PM 84.0 °F 82.6 °F 54.0 °F 35% 30.12 in 10.0 mi SSW 16.1 mph 23.0 mph N/A   Clear
1:53 PM 84.9 °F 83.2 °F 53.1 °F 33% 30.10 in 10.0 mi SSW 11.5 mph - N/A   Clear
2:53 PM 84.9 °F - 51.1 °F 31% 30.09 in 10.0 mi SW 12.7 mph - N/A   Clear
3:53 PM 84.0 °F 82.5 °F 53.1 °F 34% 30.08 in 10.0 mi SSW 16.1 mph - N/A   Clear
4:53 PM 82.0 °F - 52.0 °F 35% 30.06 in 10.0 mi SSW 16.1 mph 21.9 mph N/A   Clear
5:53 PM 79.0 °F - 48.9 °F 35% 30.06 in 10.0 mi SSW 15.0 mph 23.0 mph N/A   Clear
6:53 PM 75.9 °F - 51.1 °F 42% 30.06 in 10.0 mi SSW 12.7 mph - N/A   Partly Cloudy
7:53 PM 70.0 °F - 54.0 °F 57% 30.06 in 10.0 mi South 8.1 mph - N/A   Clear
8:53 PM 66.0 °F - 57.0 °F 73% 30.07 in 10.0 mi South 8.1 mph - N/A   Clear
9:53 PM 63.0 °F - 57.0 °F 81% 30.08 in 10.0 mi South 5.8 mph - N/A   Clear
10:53 PM 62.1 °F - 57.0 °F 84% 30.09 in 10.0 mi SSW 6.9 mph - N/A   Clear
11:53 PM 60.1 °F - 57.0 °F 90% 30.09 in 10.0 mi Calm Calm - N/A   Clear